Lexington Weather

Lexington, Massachusetts, USA

46°F
10/22/2019 1:56am 
  • Lexington Conditions: Partly cloudy
  • Temperature: 46.0°F / 7.8°CWarmer 0.3°F than last hour.
  • Dew Point: 44.1°FIncreased 0.9°Fsince last hour.
  • Relative Humidity: 93%Increased 2.0% since last hour.
  • Wind: Calm, 10-min avg: Calm, gust: None
  • Barometer: 30.12 in Steady
  • Visibility: 9 miles
  • Rain Today: 0.00 in
  •   

Regional Weather Roundup
for Boston, MA

        
000
ASUS41 KBOX 212010
RWRBOX

REGIONAL WEATHER ROUNDUP
NATIONAL WEATHER SERVICE BOSTON/NORTON MA
400 PM EDT MON OCT 21 2019

NOTE:  "FAIR" INDICATES FEW OR NO CLOUDS BELOW 12,000 FEET WITH NO 
SIGNIFICANT WEATHER AND/OR OBSTRUCTIONS TO VISIBILITY.

MAZALL-212100-
EASTERN MASSACHUSETTS
  
CITY           SKY/WX    TMP DP  RH WIND       PRES   REMARKS
BOSTON         FAIR      59  50  72 E10       30.11R                  
BEVERLY        FAIR      60  43  53 E7        30.11R                  
LAWRENCE       FAIR      61  44  53 E7        30.12R                  
BEDFORD        FAIR      66  42  41 E10       30.09R                  
BLUE HILL      NOT AVBL                                               
NORWOOD        FAIR      62  42  47 E9        30.10R                  
MARSHFIELD     FAIR      59  52  77 NE8G14    30.09S                  
PLYMOUTH       FAIR      57  47  69 NE15G22   30.09S                  
TAUNTON        FAIR      62  45  53 VRB6      30.08R                  
NEW BEDFORD    FAIR      61  42  49 NE16      30.06F                  
$$

MAZALL-212100-
CAPE COD AND THE ISLANDS
  
CITY           SKY/WX    TMP DP  RH WIND       PRES   REMARKS
FALMOUTH       MOSUNNY   57  48  72 NE13G23   30.07S                  
HYANNIS        FAIR      60  47  61 N16       30.05R                  
CHATHAM        NOT AVBL                                               
PROVINCETOWN   FAIR      57  50  77 NE15        N/A                   
NANTUCKET      CLOUDY    57  52  83 N18       30.04R                  
MARTHAS VNYRD  FAIR      61  48  62 NE14      30.05R                  
$$
 
MAZALL-212100-
CENTRAL AND WESTERN MASSACHUSETTS
  
CITY           SKY/WX    TMP DP  RH WIND       PRES   REMARKS
WORCESTER      FAIR      61  47  59 NE8       30.09R                  
FITCHBURG      FAIR      64  46  52 VRB5      30.10R                  
ORANGE         FAIR      67  44  43 NE7       30.08R                  
SPRINGFIELD    SUNNY     67  47  48 N6        30.06R                  
WESTFIELD      FAIR      67  46  47 N7        30.07S                  
NORTH ADAMS    FAIR      64  48  56 W5        30.07S                  
PITTSFIELD     FAIR      67  45  45 CALM      30.06R                  
$$
 
RIZALL-212100-
RHODE ISLAND
  
CITY           SKY/WX    TMP DP  RH WIND       PRES   REMARKS
PROVIDENCE     FAIR      63  44  50 NE10      30.08R                  
NEWPORT        FAIR      63  44  50 NE10      30.07R                  
BLOCK ISLAND   FAIR      61  47  59 NE14      30.06R                  
SMITHFIELD     FAIR     N/A N/A N/A NE12      30.09R                  
WESTERLY       FAIR      68  45  43 NE9       30.06R                  
$$
 
CTZALL-212100-
CONNECTICUT
  
CITY           SKY/WX    TMP DP  RH WIND       PRES   REMARKS
BRADLEY INTL   FAIR      68  47  46 N7        30.06S                  
HARTFORD       FAIR      68  49  50 N7        30.06S                  
BRIDGEPORT     FAIR      67  46  47 E5        30.06                   
DANBURY        FAIR      67  40  37 E6        30.08                   
GROTON         FAIR      67  42  40 NE12      30.05R                  
NEW HAVEN      FAIR      67  51  56 S8        30.06                   
CHESTER        FAIR      68  41  37 E8        30.05S                  
MERIDEN        FAIR      67  46  47 N7        30.06S                  
WILLIMANTIC    FAIR      66  46  48 NE7       30.08R                  
OXFORD         FAIR      64  45  49 E7        30.08R                  
$$

MEZ002-015-021-024-NHZ003-005-008-011-012-014-VTZ005-008-212100-
NORTHERN NEW ENGLAND
  
CITY           SKY/WX    TMP DP  RH WIND       PRES   REMARKS
PORTLAND ME    FAIR      61  46  57 E6        30.12R                  
BANGOR ME      FAIR      64  41  42 N5        30.11S                  
CONCORD NH     FAIR      62  48  60 NW5       30.10S                  
MANCHESTER NH  FAIR      66  47  50 N3        30.08S                  
NASHUA NH      FAIR      64  49  57 N3        30.10R                  
PORTSMOUTH NH  SUNNY     58  46  65 SE8       30.09R                  
JAFFREY NH     FAIR      63  45  51 VRB3      30.09S                  
KEENE NH       FAIR      63  49  60 N5        30.08S                  
BURLINGTON VT  PTSUNNY   61  43  51 NW7       30.11S                  
MT. WASHINGTON MOSUNNY   43  12  28 NE10        N/A                   
$$

NYZ052-076-212100-
EASTERN NEW YORK
  
CITY           SKY/WX    TMP DP  RH WIND       PRES   REMARKS
ALBANY         FAIR      58  48  69 CALM      30.11S                  
NEW YORK CITY  FAIR      67  42  40 NE7       30.06                   
$$
 
ANZALL-212100-
MARINE OBSERVATIONS
  
STATION/POSITION TIME  TEMP    WIND        PRES    VSBY  WAVE
                       AIR SEA DIR/SP/G                  HT/PER
                 (UTC) (F)     (DEG/KT/KT) (MB)    (MI)  (FT/S)
BOSTON BUOY      1950   56 57   50/ 12/ 14 1018.0F         3/ 4
BUZZARDS BAY     1900   58      40/ 19/ 21 1018.0R
NANTUCKET SOUND  1940      57                N/A           2/ 4
MASS BAY-STELLWA 1904   55 56   50/ 12/ 14 1018.4F  1 3/4  3/ 5
ISLE OF SHOALS   1900   54      90/ 13/ 14 1018.6F
S OF BLOCK IS    2000      60                N/A           8/ 8
$$

......................KEY.........................
  SKY/WX - SKY CONDITION/PRESENT WEATHER
  TMP    - TEMPERATURE IN FAHRENHEIT
  DWPT   - DEWPOINT IN FAHRENHEIT
  RH     - RELATIVE HUMIDITY IN PERCENT
  WIND   - DIRECTION AND SPEED IN MPH
  PRES   - MEAN SEA LEVEL PRESSURE IN INCHES OF HG
  WCI    - WIND CHILL INDEX
  VSB    - VISIBILITY IN MILES
  HX     - HEAT INDEX
  TC     - TEMPERATURE IN CELSIUS
  VRB    - VARIABLE WIND DIRECTION
  N/A    - NOT AVAILABLE
  
      

Other recent Regional Weather Roundups

Tue Oct 22, 1:10am

Tue Oct 22, 1:00am

Tue Oct 22, 12:10am

Tue Oct 22, 12:00am

Mon Oct 21, 11:10pm

Mon Oct 21, 11:00pm

Mon Oct 21, 10:10pm

Mon Oct 21, 10:01pm

Mon Oct 21, 9:10pm

Mon Oct 21, 9:00pm

Mon Oct 21, 8:10pm

Mon Oct 21, 8:00pm

Mon Oct 21, 7:10pm

Mon Oct 21, 7:01pm

Mon Oct 21, 6:10pm

Mon Oct 21, 6:01pm

Mon Oct 21, 5:10pm

Mon Oct 21, 5:01pm

Mon Oct 21, 4:00pm

Mon Oct 21, 3:10pm

Mon Oct 21, 3:01pm

Mon Oct 21, 2:10pm

Mon Oct 21, 2:00pm

Mon Oct 21, 1:10pm

Mon Oct 21, 1:01pm

Mon Oct 21, 12:10pm

Mon Oct 21, 12:00pm

Mon Oct 21, 11:10am

Mon Oct 21, 11:00am

Mon Oct 21, 10:10am

Mon Oct 21, 10:00am

Mon Oct 21, 9:10am

Mon Oct 21, 9:00am

Mon Oct 21, 7:10am

Mon Oct 21, 7:00am

Mon Oct 21, 6:10am

Mon Oct 21, 6:00am

Mon Oct 21, 5:10am

Mon Oct 21, 5:00am

Mon Oct 21, 4:10am

Mon Oct 21, 4:00am

Mon Oct 21, 3:10am

Mon Oct 21, 3:00am

Mon Oct 21, 2:10am

Mon Oct 21, 2:01am

Mon Oct 21, 1:10am

Mon Oct 21, 1:00am

Mon Oct 21, 12:10am

Mon Oct 21, 12:00am

Sun Oct 20, 11:10pm

Sun Oct 20, 11:00pm

Sun Oct 20, 10:10pm

Sun Oct 20, 10:00pm

Sun Oct 20, 9:10pm

Sun Oct 20, 9:01pm

Sun Oct 20, 8:10pm

Sun Oct 20, 8:00pm

Sun Oct 20, 7:10pm

Sun Oct 20, 7:01pm

Sun Oct 20, 6:10pm

Sun Oct 20, 6:00pm

Sun Oct 20, 5:10pm

Sun Oct 20, 5:00pm

Sun Oct 20, 4:10pm

Sun Oct 20, 4:00pm

Sun Oct 20, 3:10pm

Sun Oct 20, 3:00pm

Sun Oct 20, 2:10pm

Sun Oct 20, 2:01pm

Sun Oct 20, 1:10pm

Sun Oct 20, 1:01pm

Sun Oct 20, 12:10pm

Sun Oct 20, 12:00pm

Sun Oct 20, 11:10am

Sun Oct 20, 11:00am

Sun Oct 20, 10:10am

Sun Oct 20, 10:00am

Sun Oct 20, 9:10am

Sun Oct 20, 9:00am

Sun Oct 20, 8:10am

Sun Oct 20, 8:00am

Sun Oct 20, 7:10am

Sun Oct 20, 7:00am

Sun Oct 20, 6:10am

Sun Oct 20, 6:00am

Sun Oct 20, 5:10am

Sun Oct 20, 5:00am

Sun Oct 20, 4:10am

Sun Oct 20, 4:00am

Sun Oct 20, 3:10am

Sun Oct 20, 3:00am

Sun Oct 20, 2:10am

Sun Oct 20, 2:00am

Sun Oct 20, 1:10am

Sun Oct 20, 1:00am

Sun Oct 20, 12:10am

Sun Oct 20, 12:00am

Sat Oct 19, 11:10pm

Sat Oct 19, 11:00pm

Sat Oct 19, 10:10pm

Sat Oct 19, 10:00pm

Sat Oct 19, 9:10pm

Sat Oct 19, 9:00pm

Sat Oct 19, 8:10pm

Sat Oct 19, 8:00pm

Sat Oct 19, 7:10pm

Sat Oct 19, 7:00pm

Sat Oct 19, 6:10pm

Sat Oct 19, 6:00pm

Sat Oct 19, 5:10pm

Sat Oct 19, 5:00pm

Sat Oct 19, 4:10pm

Sat Oct 19, 4:00pm

Sat Oct 19, 3:10pm

Sat Oct 19, 3:01pm

Sat Oct 19, 2:10pm

Sat Oct 19, 2:00pm

Sat Oct 19, 1:10pm

Sat Oct 19, 1:01pm

Sat Oct 19, 12:10pm

Sat Oct 19, 12:00pm

Sat Oct 19, 11:10am

Sat Oct 19, 11:01am

Sat Oct 19, 10:10am

Sat Oct 19, 10:00am

Sat Oct 19, 9:10am

Sat Oct 19, 9:00am

Sat Oct 19, 8:10am

Sat Oct 19, 8:00am

Sat Oct 19, 7:10am

Sat Oct 19, 7:00am

Sat Oct 19, 6:10am

Sat Oct 19, 6:00am

Sat Oct 19, 5:10am

Sat Oct 19, 5:00am

Sat Oct 19, 4:10am

Sat Oct 19, 4:00am

Sat Oct 19, 3:10am

Sat Oct 19, 3:00am

Sat Oct 19, 2:10am

Sat Oct 19, 2:00am

Meta data:

ID: 0bd6164b-d74f-49eb-9403-327d57af543a
Link: https://api.weather.gov/products/0bd6164b-d74f-49eb-9403-327d57af543a